Aérodrome :
LOGIN :

S'inscrire | Disclaimer

   EN    FR    IT 

 










Légende :    VFR   VFR Marginal   IFR   IFR Intensif   IFR Très Intensif
Visi : 
Plafond : 
>= 8 km
>= 3000ft
5 à 8 km
1000 à 3000 ft
1500m à 5 km
500 à 1000 ft
800 à 1500m
200 à 500 ft
< 800m
< 200 ft
Symboles :   Orages  Brouillard  Fortes neiges  Fortes précipitations  Vent > 20 kt
SIGMETs :   Divers  Orages  Givrage  Turbulence  Onde Orograph.  Cendres Volcan.






- Altitude de l'aérodrome : 137 ft


LIPS - Istrana AFB Treviso

DERNIER METAR :
  • 090855Z 07009KT CAVOK 10/01 Q1016 RMK SKC VIS MIN 9999 WIND THR26 06011KT WIND THR08 03010KT BLU

METARs EXPIRÉS :
  • 090755Z 07010KT CAVOK 08/02 Q1016 RMK SKC VIS MIN 9999 WIND THR26 02010KT WIND THR08 06011KT BLU
  • 090655Z 04008KT 9999 SCT100 06/03 Q1017 RMK SCT VIS MIN 9999 WIND THR26 01010KT WIND THR08 03009KT BLU

TAF TAF LIPS
Valide du 09 à 09h jusqu'au 09 à 18h UTC


090800Z 0909/0918 05008KT 9999 SCT100



MET'MAP, la Météo Aéronautique d'un coup d'oeil ! - Copyright ORBIFLY Décembre 2007 - Disclaimer

ORBIFLY MET'MAP TEAM :

Programmation & Développement : Alexandra Zaïnal
Sur une idée originale de : Baudouin d'Aumeries
Assistance à la programmation : Marc-Olivier Méhu
Soutien technique & logistique : Manuel Goepfert

Contact : metmap@orbifly.com




SOURCES & CREDITS :

   NOAA